This is the latest recevied weather packets stored in our database for station/object K5VW. If no packets are shown the sender has not sent any weather packets the latest 1 day(s).
| Time | Temp. | Humidity | Pressure | Rain* | Wind** | Luminosity | Snow |
|---|---|---|---|---|---|---|---|
| 1778093966 | 25° C | 21% | 1010.8 hPa | 0 mm | - | - | - |
| 1778093905 | 25° C | 21% | 1010.9 hPa | 0 mm | - | - | - |
| 1778093849 | 25° C | 19% | 1011 hPa | 0 mm | - | - | - |
| 1778093721 | 25.56° C | 21% | 1011.1 hPa | 0 mm | - | - | - |
| 1778093099 | 25.56° C | 20% | 1011.2 hPa | 0 mm | - | - | - |
| 1778092792 | 25° C | 22% | 1011.3 hPa | 0 mm | - | - | - |
| 1778092733 | 25° C | 22% | 1011.3 hPa | 0 mm | - | - | - |
| 1778092664 | 25° C | 22% | 1011.3 hPa | 0 mm | - | - | - |
| 1778092600 | 25° C | 22% | 1011.3 hPa | 0 mm | - | - | - |
| 1778092479 | 25° C | 23% | 1011.3 hPa | 0 mm | - | - | - |
| 1778092411 | 25° C | 24% | 1011.3 hPa | 0 mm | - | - | - |
| 1778092286 | 25° C | 24% | 1011.3 hPa | 0 mm | - | - | - |
| 1778092094 | 25° C | 25% | 1011.4 hPa | 0 mm | - | - | - |
| 1778091851 | 25° C | 25% | 1012 hPa | 0 mm | - | - | - |
| 1778091794 | 25° C | 25% | 1012 hPa | 0 mm | - | - | - |
| 1778091615 | 25° C | 27% | 1011.9 hPa | 0 mm | - | - | - |
| 1778091552 | 25° C | 27% | 1011.8 hPa | 0 mm | - | - | - |
| 1778091121 | 23.89° C | 29% | 1011.9 hPa | 0 mm | - | - | - |
| 1778090982 | 23.89° C | 29% | 1011.9 hPa | 0 mm | - | - | - |
| 1778090800 | 23.89° C | 29% | 1012.1 hPa | 0 mm | - | - | - |
| 1778090673 | 24.44° C | 28% | 1012.1 hPa | 0 mm | - | - | - |
| 1778090413 | 23.89° C | 30% | 1012 hPa | 0 mm | - | - | - |
| 1778090350 | 23.89° C | 31% | 1011.9 hPa | 0 mm | - | - | - |
| 1778090292 | 23.33° C | 33% | 1011.8 hPa | 0 mm | - | - | - |
| 1778090175 | 23.33° C | 31% | 1011.8 hPa | 0 mm | - | - | - |
* Rain latest hour (hover to see other rain measurements)
** Current wind speed in m/s (hover to see current wind gust speed)